Powrót do katalogu

ARIANE 44LP DEB

LostGTO
NORAD 33546·DEBRIS·🇫🇷 France

Wystrzelony Dec 11, 1988 z Guiana Space Centre

Loading…

TLE

NieaktualneSource: Space-Track

Epoka: May 10, 2026, 01:30 UTC

1 33546U 88109V   26130.06305925 -.00000074  00000-0 -10063-2 0  9994
2 33546   6.8765 261.5197 7132734  12.8308 341.8501  2.23370307 20589

Śledź ARIANE 44LP DEB w czasie rzeczywistym z AllMySat

Download on the App Store